Location: Moscow
(55.7500°N, 37.5830°E)
Time: 14:47:58
(UTC+03:00)

Vanguard 1 - Pass Details

Date: 06 December 2021
Orbit: 652 x 3830 km, 34.2° (Epoch: 25 January)

Event Time Altitude Azimuth Distance (km) Brightness Sun altitude
Exits shadow 04:42:50 29° 223° (SW) 5,019 13.2 -32.1°
Maximum altitude 04:46:13 31° 208° (SSW) 4,755 13.2 -31.6°
Drops below altitude 10° 04:59:25 10° 155° (SSE) 5,171 13.9 -29.8°
Sets 05:03:23 0° 145° (SE) 5,755 14.4 -29.2°
